Location: Unspecified
(33.2407°S, 0.0000°E)
Time: 17:25:17
(UTC+00:00)

Hubble Space Telescope - Pass Details

Date: 25 May 2019
Orbit: 536 x 540 km, 28.5° (Epoch: 15 June)

Event Time Altitude Azimuth Distance (km) Brightness Sun altitude
Exits shadow 06:08:53 - 292° (WNW) 2,237 3.5 -8.9°
Reaches altitude 10° 06:10:55 10° 313° (NW) 1,793 3.2 -8.5°
Maximum altitude 06:12:32 12° 336° (NNW) 1,664 3.2 -8.2°
Drops below altitude 10° 06:14:09 10° 359° (N) 1,789 3.7 -7.9°
Sets 06:17:42 0° 30° (NNE) 2,675 5.2 -7.2°
